Home   Weather   Bundi   Past weeks

Flag for India Past Weather in Bundi, Rajasthan, India — Yesterday and Last 2 Weeks

Now
79 °F

Fog.


Feels Like: 83 °F
Forecast: 78 / 86 °F
Wind: 12 mph from Southeast

Location: Jaipur / Sanganer

Current Time: Jul 24, 2017 at 8:18:19 pm

Latest Report: Jul 24, 2017 at 7:30 pm


Visibility: 2 mi

Pressure: 29.45 "Hg

Humidity: 94%

Dew Point: 77 °F

Location of BundiLocation

Past Weather in Bundi — Graph

°F

Bundi Temperature Yesterday

Maximum temperature yesterday: 84 °F (at 2:30 pm)
Minimum temperature yesterday: 79 °F (at 2:30 am)
Average temperature yesterday: 80 °F

High & Low Weather Summary for the Past Weeks

 TemperatureHumidityPressure
High99 °F (Jul 9, 6:30 pm)100% (Jul 22, 10:00 am)29.68 "Hg (Jul 22, 10:00 am)
Low77 °F (Jul 24, 5:30 am)33% (Jul 10, 3:30 pm)29.42 "Hg (Jul 20, 4:30 pm)
Average86 °F73%29.56 "Hg
* Reported Jul 9 6:30 pm — Jul 24 6:30 pm, Bundi. Weather by CustomWeather, © 2017

Note: Actual official high and low records may vary slightly from our data, if they occured in-between our weather recording intervals... More about our weather records

Advertising

Bundi Weather History for the Previous 24 Hours

Scroll right to see more
 ConditionsComfort  
Time TempWeatherWind HumidityBarometerVisibility
6:30 pm
Mon, Jul 24
82 °FBroken clouds.7 mph84%29.45 "Hg2 mi
6:00 pm82 °FBroken clouds.7 mph79%29.42 "Hg2 mi
5:30 pm82 °FBroken clouds.8 mph79%29.42 "Hg2 mi
4:30 pm82 °FBroken clouds.8 mph84%29.42 "Hg2 mi
4:00 pm84 °FBroken clouds.10 mph74%29.42 "Hg2 mi
3:30 pm84 °FBroken clouds.9 mph74%29.45 "Hg2 mi
3:00 pm84 °FBroken clouds.9 mph79%29.45 "Hg2 mi
2:30 pm82 °FBroken clouds.9 mph84%29.45 "Hg2 mi
2:00 pm84 °FBroken clouds.5 mph79%29.47 "Hg1 mi
1:30 pm82 °FBroken clouds.5 mph84%29.47 "Hg1 mi
1:00 pm84 °FBroken clouds.5 mph79%29.47 "Hg1 mi
12:30 pm81 °FBroken clouds.5 mph94%29.50 "Hg1 mi
12:00 pm79 °FFog.5 mph94%29.50 "Hg1 mi
11:30 am82 °FFog.5 mph84%29.50 "Hg1 mi
11:00 am81 °FFog.5 mph100%29.50 "Hg1 mi
9:30 am77 °FDrizzle. More clouds than sun.5 mph100%29.50 "Hg1 mi
9:00 am77 °FDrizzle. More clouds than sun.5 mph100%29.50 "Hg1 mi
7:30 am77 °FDrizzle. More clouds than sun.5 mph100%29.47 "Hg1 mi
7:00 am77 °FDrizzle. Broken clouds.5 mph100%29.47 "Hg1 mi
5:30 am77 °FFog.5 mph100%29.45 "Hg1 mi
4:30 am79 °FRain. Partly cloudy.5 mph100%29.45 "Hg1 mi
4:00 am79 °FFog.5 mph100%29.45 "Hg1 mi
3:30 am79 °FFog.5 mph100%29.45 "Hg1 mi
3:00 am79 °FFog.5 mph100%29.47 "Hg1 mi
2:30 am79 °FFog.5 mph100%29.47 "Hg1 mi
1:30 am79 °FFog.5 mph100%29.47 "Hg1 mi
1:00 am79 °FFog.5 mph100%29.47 "Hg1 mi
12:00 am79 °FFog.5 mph100%29.50 "Hg1 mi
11:00 pm
Sun, Jul 23
79 °FFog.5 mph100%29.50 "Hg1 mi
10:30 pm79 °FFog.5 mph100%29.50 "Hg1 mi
10:00 pm79 °FFog.5 mph100%29.50 "Hg1 mi
9:30 pm79 °FFog.5 mph100%29.47 "Hg1 mi
9:00 pm79 °FFog.5 mph100%29.47 "Hg1 mi
8:30 pm79 °FFog.5 mph100%29.47 "Hg1 mi
8:00 pm79 °FThunderstorms. Partly cloudy.5 mph100%29.47 "Hg1 mi
Weather by CustomWeather, © 2017

See weather overviewHow to use our weather pages